Regional Weather Roundup
Issued by NWS Charleston, SC

Current Version | Previous Version | Graphics & Text | Print | Product List | Glossary On
Versions: 1 2 3 4 5 6 7 8 9 10 11 12 13 14 15 16 17 18 19 20 21 22 23 24 25 26 27 28 29 30 31 32 33 34 35 36 37 38 39 40 41 42 43 44 45 46 47 48 49 50
012 ASUS42 KCHS 261613 RWRCHS REGIONAL WEATHER ROUNDUP NATIONAL WEATHER SERVICE CHARLESTON SC 1200 PM EDT FRI AUG 26 2016 NOTE: "FAIR" INDICATES FEW OR NO CLOUDS BELOW 12,000 FEET WITH NO SIGNIFICANT WEATHER AND/OR OBSTRUCTIONS TO VISIBILITY. NOT ALL STATIONS ARE QUALITY CONTROLLED. USE DATA WITH CAUTION... ESPECIALLY DEWPOINT OBSERVATIONS. SCZ027-030-031-034>040-042>050-261700- ...SOUTHEAST SOUTH CAROLINA... CITY SKY/WX TMP DP RH WIND PRES REMARKS N CHARLESTON MOSUNNY 89 69 51 VRB3 30.11F HX 93 WATERFRONT PRK N/A 86 73 65 SE5 30.10S HX 93 MOUNT PLEASANT FAIR 88 73 62 CALM 30.11F HX 96 JOHNS ISLAND CLOUDY 84 72 65 NE6 30.11F PINOPOLIS N/A 82 73 74 CALM 30.05S MONCKS CORNER CLOUDY 84 72 65 CALM 30.12S SUMMERVILLE FAIR 86 73 66 CALM 30.13S HX 93 BEAUFORT MCAS MOSUNNY 89 71 55 VRB7 30.11F HX 95 BEAUFORT ARPT FAIR 88 70 55 NE10 30.11S HX 92 HILTON HEAD IS NOT AVBL WALTERBORO MOSUNNY 90 70 51 CALM 30.12F HX 95 ALLENDALE FAIR 88 68 51 NE6 30.11S HX 91 ...SOUTHERN MIDLANDS AND PEE DEE... CITY SKY/WX TMP DP RH WIND PRES REMARKS GEORGETOWN FAIR 86 70 58 CALM 30.13S HX 90 KINGSTREE FAIR 88 68 51 S7 30.11F HX 91 ORANGEBURG SUNNY 87 70 56 S5 30.11F HX 92 BARNWELL NOT AVBL AIKEN FAIR 88 68 51 S5 30.15S HX 91 MANNING FAIR 84 72 65 SW5 30.12F COLUMBIA MOSUNNY 91 69 48 VRB5 30.10S HX 96 SUMTER SUNNY 89 69 50 S7 30.08F HX 93 FLORENCE SUNNY 90 69 50 VRB5 30.11S HX 94 MYRTLE BEACH MOSUNNY 88 66 48 S8 30.13S HX 90 N MYRTLE BEACH SUNNY 85 72 65 S9 30.11S HX 91 $$ GAZ063-065-086>088-099>101-113>116-118-119-134>141-150-261700- ...SOUTHEAST GEORGIA... CITY SKY/WX TMP DP RH WIND PRES REMARKS SAVANNAH ARPT PTSUNNY 88 70 55 E10 30.10F HX 93 HUNTER AAF PTSUNNY 89 76 65 E12 30.08S HX 100 FORT STEWART MOSUNNY 87 69 54 NE10 30.07F HX 90 STATESBORO CLOUDY 89 72 57 CALM 30.12S HX 95 SYLVANIA NOT AVBL CLAXTON FAIR 89 71 55 NE7 30.10F HX 94 ...CSRA...CENTRAL AND FAR SOUTHEAST GEORGIA... CITY SKY/WX TMP DP RH WIND PRES REMARKS THOMSON SUNNY 91 71 52 MISG 30.16F HX 98 AUGUSTA-BUSH MOSUNNY 90 68 48 VRB3 30.10F HX 94 AUGUSTA-DANIEL SUNNY 91 68 46 E3 30.12F HX 95 SWAINSBORO FAIR 88 68 51 S8 30.12F HX 91 VIDALIA MOSUNNY 90 73 58 E8 30.11F HX 98 EASTMAN FAIR 90 55 30 SE8 30.13F HAZLEHURST PTSUNNY 89 71 54 E7 30.09F HX 95 ALMA SUNNY 87 68 52 E7 30.09F HX 90 WAYCROSS N/A 91 74 56 E7 30.09F HX 100 JESUP FAIR 90 75 62 SE10G16 30.08F HX 100 BAXLEY FAIR 88 72 58 E9 30.09F HX 94 BRUNSWICK MOSUNNY 86 72 62 NE16 30.09S HX 92 SAINT SIMONS CLOUDY 83 74 74 E9 30.09S $$ SCZ027-028-034-036>038-045-046-048>050-GAZ119-141-261700- ...LAKE AND SUPPLEMENTAL COASTAL OBSERVATIONS... STATION/POSITION TIME TEMP WIND PRES WAVE SWELL AIR SEA DIR/SP/G HT/PER HT/PER/DIR (UTC) (F) (DEG/KT/KT) (MB) (FT/S) (FT/S/D) WINYAH BAY 1445 83 110/ 2 1019.0 LAKE MURRAY 1500 85 170/ 5/ 6 1019.0R ACE BASIN NERRS NOT AVBL FORT PULASKI 1500 83 86 50/ 9/ 13 1020.0R SAPELO ISLAND 1500 88 60/ 12 1019.0S $$ ANZ835-935-AMZ111-154-330-350-352-354-370-450-454-472-261700- ...C-MAN AND BUOY OBSERVATIONS... STATION/POSITION TIME TEMP WIND PRES WAVE SWELL AIR SEA DIR/SP/G HT/PER HT/PER/DIR (UTC) (F) (DEG/KT/KT) (MB) (FT/S) (FT/S/D) BUOY 41004 1550 82 83 30/ 10/ 12 1019.1R 2/ 7 2/100/ 7 BUOY 41008 1550 83 85 70/ 16/ 19 1018.5F 4/ 8 3/120/ 8 FOLLY BEACH CMAN 1600 83 70/ 8/ 10 1020.0F CAPERS NEARSHORE 1508 82 84 60/ 6/ 10 1019.9R FRIPP NEARSHORE 1508 82 86 60/ 10/ 16 1019.2R STATION/POSITION TIME TEMP WIND PRES WAVE SWELL AIR SEA DIR/SP/G HT/PER HT/PER/DIR (UTC) (F) (DEG/KT/KT) (MB) (FT/S) (FT/S/D) 5E ST. MARYS GA 1501 85 N/A 4/ 8 FRYING PAN BUOY 1500 82 84 30/ 8/ 10 1019.5R BUOY 41025 1550 81 85 20/ 2/ 4 1020.1R 2/ 8 2/ 70/ 8 CAPE LOOKOUT NC 1600 83 110/ 4/ 4 1019.7R BUOY 41002 1550 82 84 70/ 21/ 27 1016.9F 5/ 5 2/ 90/ 8 BUOY 41010 NOT AVBL ST AUGUSTINE FL 1600 82 83 60/ 13/ 14 1018.5F $$

USA.gov is the U.S. government's official web portal to all federal, state and local government web resources and services.